Wetbulb
74.73 77.29 80.02 80.34 80.00 79.42 78.85 78.42 78.11 78.20 78.05 78.12 78.53 78.65 78.70 78.87 78.64 78.53 78.35 78.19 77.62 77.36 76.64 76.37 76.60 76.49 76.59 76.19 76.46 76.19 76.34 76.37 76.41 76.32 76.02 75.90 75.68 75.57 75.87 75.50 75.08 73.56 75.16
75.70 77.87 79.75 80.45 80.44 79.79 79.18 78.72 78.16 78.35 78.11 78.18 78.21 77.95 77.97 78.32 77.89 77.84 78.31 77.51 77.07 76.97 76.62 76.59 76.74 76.60 76.73 76.34 76.40 76.37 76.32 76.46 76.63 76.20 76.00 75.39 75.49 75.43 75.48 74.84 75.10 73.81 75.01
76.44 77.79 79.08 79.90 80.57 80.06 79.37 78.99 78.37 78.13 78.15 78.00 78.08 77.65 77.66 77.82 76.97 77.37 77.49 77.36 77.03 76.85 76.44 76.80 77.02 76.82 76.54 76.77 76.48 76.20 76.46 76.28 76.35 76.03 75.72 73.19 73.42 75.74 75.35 74.12 74.25 75.23 73.80
76.51 77.19 78.40 79.85 80.07 80.02 79.56 79.28 78.76 78.18 78.02 78.15 77.94 77.78 77.58 77.62 77.24 77.15 77.15 77.26 77.26 76.97 76.88 77.02 77.27 76.97 76.46 76.89 76.72 76.43 76.23 76.09 75.73 75.13 72.84 73.16 73.80 75.87 75.02 74.26 73.46 75.53 74.73
76.54 77.29 78.12 80.31 80.15 79.41 79.46 79.36 79.15 78.98 78.12 77.89 77.78 77.93 77.61 77.36 77.35 76.85 76.71 77.12 77.01 76.90 76.97 77.19 77.13 77.10 76.71 76.80 76.92 76.45 75.73 75.53 75.55 74.99 72.49 71.48 72.34 74.92 75.16 73.82 74.08 74.81 74.97
76.61 77.88 79.37 80.27 79.80 79.31 79.30 79.33 78.95 78.84 78.58 78.07 77.85 77.97 77.60 77.61 77.22 76.95 76.76 76.82 76.63 76.33 76.55 76.89 76.94 76.53 76.57 76.60 76.75 76.25 76.09 75.45 75.18 72.67 72.45 72.81 71.65 75.08 75.22 74.78 75.18 75.11 74.78
76.37 77.60 78.41 79.75 80.07 79.72 79.61 79.22 78.87 78.71 78.29 78.02 77.94 78.07 77.31 77.28 77.57 77.35 76.95 76.57 76.35 76.38 76.84 76.90 77.05 76.63 75.96 76.32 76.53 76.17 76.30 76.02 74.40 73.04 72.67 72.61 71.98 75.92 75.07 75.79 75.65 74.66 74.13
76.20 77.00 77.65 79.31 79.77 79.77 78.98 78.65 78.57 78.25 78.19 78.02 77.80 77.40 77.42 77.47 77.43 77.28 76.74 76.43 76.10 76.21 76.62 76.57 76.88 76.68 75.57 75.90 76.42 75.46 75.66 75.46 74.39 72.59 72.67 72.44 74.18 76.29 75.61 75.55 75.32 74.82 74.88
75.76 75.91 76.47 77.14 77.61 78.86 78.64 78.48 78.40 78.30 78.21 77.77 77.62 77.76 77.47 77.40 76.84 76.84 77.08 76.84 76.34 76.23 76.30 74.90 76.11 76.43 75.98 75.72 76.30 75.94 75.49 75.29 73.24 72.36 73.38 72.55 75.94 76.43 75.74 75.67 75.33 74.48 74.39
74.38 75.15 74.95 74.69 74.90 75.54 76.20 78.34 78.34 78.28 77.69 77.45 77.47 77.80 77.69 77.34 77.09 76.90 77.75 77.62 76.66 76.26 76.02 75.55 75.80 76.41 76.50 75.93 74.96 76.02 75.87 74.65 73.22 72.71 72.94 72.82 76.04 76.04 75.55 75.32 74.92 74.65 74.92
72.89 73.08 73.81 73.92 74.23 74.42 74.96 76.26 78.24 77.61 77.47 77.70 77.56 77.69 77.27 74.76 75.22 75.91 76.56 76.79 76.73 76.30 76.05 76.16 76.21 76.58 76.72 75.22 74.18 75.24 75.91 73.37 72.12 71.99 72.38 75.13 76.31 76.41 75.40 75.23 75.10 74.26 74.76
70.93 72.16 73.31 73.21 73.57 74.06 75.93 74.72 74.99 74.72 74.52 74.46 74.49 73.69 73.78 73.69 73.88 75.43 76.45 76.39 76.92 76.82 76.38 76.29 76.98 76.33 75.83 73.10 72.64 73.90 70.17 72.56 71.53 71.55 72.08 74.98 76.31 76.56 75.91 76.08 75.46 75.07 74.65
71.26 72.25 72.69 73.07 73.23 73.89 74.87 74.36 74.21 74.22 73.94 73.87 73.74 73.73 73.35 73.77 72.92 74.05 74.48 74.08 74.24 76.35 73.69 75.41 74.96 74.47 73.21 72.65 72.53 70.71 69.94 70.40 71.41 71.82 72.01 75.69 75.62 76.81 75.82 75.98 75.74 75.23 74.86
71.30 72.31 72.82 73.32 73.55 73.73 74.69 74.51 74.17 74.00 73.74 73.68 74.06 74.10 72.96 72.85 72.65 72.58 73.29 73.13 72.86 73.28 72.73 72.81 72.93 73.05 72.53 71.33 72.01 72.09 71.35 70.41 70.89 71.27 70.59 73.80 75.58 76.42 76.96 75.97 75.59 75.10 75.15
71.45 72.37 72.91 73.39 73.74 73.87 74.19 74.04 73.27 73.77 73.91 73.61 73.83 73.69 73.54 72.27 71.50 71.45 71.47 72.05 72.75 72.04 72.11 71.44 72.07 71.86 71.87 72.01 70.43 71.30 72.06 71.55 71.43 71.99 70.85 73.71 74.27 75.94 76.98 76.51 76.30 75.60 75.40
71.80 72.28 73.24 73.34 72.26 72.22 71.37 71.66 71.62 72.41 72.21 72.97 73.59 73.53 73.34 72.39 71.68 70.85 69.52 69.29 69.77 70.96 71.89 70.74 71.10 70.67 70.79 70.38 71.37 70.90 70.32 71.10 70.76 72.00 72.19 71.40 75.32 75.18 75.66 76.85 76.86 76.21 75.75
71.51 72.19 71.04 69.00 68.96 67.85 67.47 67.88 67.99 69.03 70.53 71.98 72.25 72.39 72.95 72.72 71.96 71.30 69.32 68.17 68.18 67.83 70.17 69.48 69.56 69.05 67.74 69.33 69.62 71.11 72.36 72.19 71.62 71.46 71.41 71.86 73.31 76.11 75.71 76.45 76.71 76.69 76.28
71.12 70.34 70.52 71.24 70.89 70.91 68.56 67.85 67.88 67.72 67.79 68.94 71.35 71.70 71.96 73.17 72.70 71.67 70.94 69.88 69.23 67.58 68.82 67.83 67.38 67.15 66.28 66.70 68.42 70.44 71.36 71.97 71.98 71.62 72.02 71.09 70.98 73.14 75.13 76.07 76.05 76.46 76.71
70.08 69.28 68.88 69.77 69.88 69.59 68.71 67.52 67.34 67.02 66.91 68.60 70.38 72.32 72.74 73.89 73.48 71.63 71.17 71.84 69.97 68.80 67.54 67.70 66.48 65.08 64.07 64.29 65.95 68.53 69.77 70.82 71.05 72.56 71.79 71.94 71.69 72.53 72.91 74.65 75.13 75.33 76.18
69.63 69.45 69.76 68.53 67.72 67.15 67.00 66.57 66.64 66.55 67.74 69.30 70.81 71.94 72.90 74.02 72.64 70.77 70.35 70.86 69.97 69.30 67.87 66.63 67.74 66.86 66.06 65.19 68.72 69.02 67.94 68.55 70.43 69.86 71.12 72.17 71.98 72.75 72.97 72.30 71.89 73.41 75.52
69.62 69.98 67.36 67.02 64.45 65.49 65.08 64.78 65.63 65.73 67.22 67.09 70.01 70.91 72.26 71.50 70.78 70.50 70.30 70.05 69.76 68.76 69.27 68.66 67.67 68.08 67.65 67.79 65.98 64.71 64.80 67.25 68.64 69.79 70.68 70.71 71.35 72.10 72.25 72.01 71.77 72.42 72.74
69.52 69.39 67.05 64.44 65.15 65.24 65.03 66.84 67.06 66.91 67.65 67.88 69.23 69.40 71.82 71.80 71.20 71.13 69.98 69.49 69.31 68.44 67.97 67.94 67.94 66.34 67.18 66.32 65.01 62.95 60.76 63.56 66.48 68.53 69.22 69.97 69.88 71.48 72.02 72.14 71.67 71.17 71.35
69.34 68.49 67.07 65.40 65.46 65.17 66.29 65.50 65.64 66.41 66.75 66.93 67.94 69.70 70.69 70.62 70.35 69.83 69.07 68.68 68.69 68.44 67.92 67.63 67.25 66.16 64.94 64.82 67.92 63.12 60.11 60.15 61.52 65.14 67.29 68.82 70.03 69.72 70.95 71.68 71.71 71.80 71.27
69.13 68.54 66.73 65.22 64.86 66.22 66.69 65.16 64.44 63.94 63.79 67.49 68.39 68.74 68.80 69.91 69.71 70.40 70.11 69.64 68.87 68.49 67.90 67.85 68.30 66.82 65.60 63.89 64.44 67.38 66.14 64.79 60.28 59.55 63.92 66.61 68.76 69.20 69.87 70.26 71.54 70.47 70.27
70.19 67.67 66.06 64.67 65.12 66.53 66.96 66.53 64.71 63.76 65.69 67.83 67.63 66.48 67.85 68.84 69.74 69.57 69.08 69.27 69.00 68.73 68.60 68.51 67.76 66.73 66.59 64.92 64.02 63.75 63.41 64.57 65.42 61.98 59.16 61.82 66.10 68.60 69.32 68.21 69.14 68.33 68.60
72.09 69.29 67.72 66.60 65.66 66.53 67.56 68.15 67.54 67.45 67.52 66.55 66.51 65.98 66.16 67.06 66.91 66.96 68.41 68.28 68.96 68.82 68.57 68.53 67.94 67.11 66.41 65.98 65.24 63.31 63.51 63.27 64.00 63.63 61.06 60.56 61.04 63.74 65.91 68.30 68.64 67.99 68.37
MSLP
1013.44 1013.43 1013.60 1013.84 1014.07 1014.20 1014.25 1014.43 1014.59 1014.77 1014.96 1015.08 1015.23 1015.34 1015.47 1015.65 1015.79 1015.98 1016.21 1016.38 1016.47 1016.56 1016.84 1016.93 1017.21 1017.33 1017.32 1017.43 1017.36 1017.54 1017.70 1017.88 1017.97 1018.12 1018.39 1018.53 1018.75 1018.89 1018.98 1019.08 1019.24 1019.40 1019.53
1013.19 1013.68 1013.76 1013.81 1013.91 1014.17 1014.41 1014.55 1014.75 1014.90 1015.22 1015.43 1015.56 1015.66 1015.79 1015.84 1015.88 1016.09 1016.23 1016.53 1016.71 1016.82 1016.99 1017.12 1017.20 1017.42 1017.47 1017.52 1017.56 1017.66 1017.95 1018.09 1018.10 1018.25 1018.41 1018.67 1018.86 1019.08 1019.13 1019.33 1019.42 1019.63 1019.76
1013.29 1013.48 1013.62 1013.76 1014.07 1014.34 1014.60 1014.80 1015.01 1015.17 1015.35 1015.54 1015.70 1015.91 1015.97 1016.19 1016.17 1016.44 1016.47 1016.63 1016.82 1016.95 1017.10 1017.15 1017.27 1017.43 1017.60 1017.57 1017.74 1017.92 1018.12 1018.31 1018.34 1018.53 1018.60 1018.90 1018.92 1019.12 1019.38 1019.56 1019.59 1019.69 1019.93
1013.18 1013.54 1013.78 1013.98 1014.28 1014.54 1014.78 1014.93 1015.09 1015.27 1015.41 1015.59 1015.75 1015.99 1016.15 1016.35 1016.58 1016.72 1016.75 1016.88 1016.99 1017.10 1017.17 1017.17 1017.28 1017.31 1017.56 1017.64 1017.75 1018.02 1018.18 1018.28 1018.41 1018.63 1018.85 1018.89 1018.97 1019.33 1019.57 1019.63 1019.84 1019.87 1020.06
1013.46 1013.64 1013.92 1014.14 1014.44 1014.67 1014.90 1015.06 1015.27 1015.47 1015.62 1015.76 1015.90 1016.03 1016.20 1016.44 1016.68 1016.86 1016.95 1017.09 1017.20 1017.29 1017.31 1017.32 1017.29 1017.20 1017.30 1017.52 1017.71 1017.79 1018.07 1018.34 1018.43 1018.61 1019.00 1019.04 1019.10 1019.32 1019.69 1019.85 1020.02 1020.07 1020.27
1013.61 1013.67 1013.95 1014.24 1014.60 1014.78 1015.00 1015.22 1015.46 1015.63 1015.86 1016.05 1016.17 1016.28 1016.40 1016.56 1016.74 1016.88 1017.04 1017.18 1017.34 1017.35 1017.39 1017.32 1017.30 1017.32 1017.44 1017.61 1017.72 1017.95 1018.00 1018.27 1018.46 1018.65 1018.83 1019.09 1019.23 1019.27 1019.56 1019.85 1020.05 1020.24 1020.41
1013.66 1013.84 1014.03 1014.29 1014.60 1014.87 1015.11 1015.34 1015.55 1015.81 1016.03 1016.18 1016.29 1016.43 1016.55 1016.63 1016.80 1016.97 1017.12 1017.29 1017.40 1017.40 1017.44 1017.39 1017.30 1017.48 1017.75 1018.03 1018.15 1018.23 1018.20 1018.19 1018.38 1018.64 1018.73 1018.85 1019.21 1019.25 1019.43 1019.72 1020.02 1020.32 1020.54
1013.32 1013.79 1014.09 1014.33 1014.54 1014.84 1015.17 1015.48 1015.69 1015.96 1016.16 1016.38 1016.45 1016.55 1016.69 1016.80 1016.91 1017.01 1017.19 1017.38 1017.51 1017.59 1017.58 1017.48 1017.41 1017.59 1017.83 1018.16 1018.36 1018.48 1018.45 1018.30 1018.38 1018.47 1018.66 1018.83 1018.97 1019.12 1019.36 1019.71 1020.08 1020.33 1020.51
1013.52 1013.79 1014.13 1014.47 1014.66 1014.94 1015.29 1015.63 1015.85 1016.00 1016.14 1016.40 1016.63 1016.70 1016.91 1017.11 1017.19 1017.25 1017.32 1017.46 1017.55 1017.56 1017.52 1017.49 1017.51 1017.65 1017.83 1018.07 1018.32 1018.43 1018.37 1018.38 1018.55 1018.68 1018.74 1018.98 1019.11 1019.05 1019.39 1019.74 1019.99 1020.28 1020.50
1014.06 1014.32 1014.43 1014.66 1014.86 1015.13 1015.38 1015.53 1015.82 1016.03 1016.12 1016.21 1016.38 1016.58 1016.67 1016.92 1017.12 1017.30 1017.44 1017.52 1017.54 1017.57 1017.56 1017.54 1017.53 1017.64 1017.76 1017.97 1018.13 1018.18 1018.17 1018.41 1018.49 1018.61 1018.86 1018.97 1019.11 1019.15 1019.41 1019.69 1019.91 1020.11 1020.44
1014.35 1014.60 1014.73 1014.89 1014.93 1015.29 1015.56 1015.69 1015.92 1016.13 1016.17 1016.37 1016.50 1016.60 1016.67 1016.87 1017.04 1017.12 1017.33 1017.50 1017.50 1017.57 1017.55 1017.49 1017.54 1017.69 1017.72 1017.97 1018.02 1018.00 1017.95 1018.39 1018.40 1018.47 1018.73 1018.83 1019.08 1019.24 1019.50 1019.68 1019.87 1020.01 1020.30
1014.25 1014.55 1014.65 1014.62 1014.86 1015.22 1015.40 1015.72 1016.12 1016.36 1016.50 1016.53 1016.65 1016.79 1016.95 1017.01 1017.07 1017.25 1017.30 1017.29 1017.33 1017.39 1017.48 1017.45 1017.53 1017.76 1017.87 1018.09 1018.08 1018.03 1018.20 1018.35 1018.24 1018.49 1018.87 1018.73 1019.11 1019.33 1019.59 1019.70 1019.78 1019.94 1020.06
1013.84 1014.31 1014.45 1014.57 1014.61 1014.79 1015.02 1015.41 1015.92 1016.18 1016.34 1016.35 1016.58 1016.78 1016.74 1016.89 1017.18 1017.05 1017.19 1017.23 1017.38 1017.22 1017.48 1017.43 1017.51 1017.77 1018.04 1018.02 1018.06 1018.16 1018.23 1018.40 1018.28 1018.41 1018.60 1018.61 1018.75 1019.06 1019.43 1019.70 1019.68 1019.81 1019.98
1013.72 1013.85 1014.17 1014.48 1014.75 1014.97 1015.09 1015.39 1015.68 1015.82 1016.03 1016.16 1016.21 1016.34 1016.55 1016.73 1016.78 1016.95 1016.94 1017.11 1017.17 1017.19 1017.42 1017.53 1017.70 1017.63 1017.86 1017.99 1017.98 1018.01 1018.06 1018.23 1018.38 1018.58 1018.64 1018.60 1018.68 1018.80 1019.03 1019.48 1019.62 1019.73 1019.91
1013.52 1013.77 1014.13 1014.51 1014.83 1015.04 1015.29 1015.51 1015.73 1015.63 1015.69 1015.82 1016.02 1016.08 1016.22 1016.18 1016.55 1016.68 1016.84 1016.92 1016.86 1017.12 1017.22 1017.52 1017.61 1017.70 1017.79 1017.84 1017.79 1017.77 1017.72 1017.89 1018.05 1018.19 1018.42 1018.56 1018.50 1018.59 1018.62 1019.01 1019.35 1019.48 1019.69
1013.03 1013.45 1013.74 1014.87 1015.41 1015.62 1016.14 1016.01 1015.96 1015.82 1015.64 1015.67 1015.84 1015.76 1015.93 1015.96 1016.01 1016.25 1016.61 1016.79 1016.86 1016.73 1016.83 1017.21 1017.20 1017.40 1017.47 1017.66 1017.69 1017.69 1017.72 1017.68 1017.69 1017.87 1017.94 1018.16 1018.25 1018.28 1018.32 1018.48 1018.91 1019.14 1019.36
1012.40 1013.01 1014.50 1015.21 1015.13 1015.71 1016.37 1016.62 1016.53 1016.16 1015.94 1015.85 1015.82 1015.49 1015.48 1015.60 1015.72 1016.01 1016.55 1016.74 1016.54 1016.59 1016.67 1016.91 1017.03 1017.24 1017.78 1017.58 1017.68 1017.46 1017.41 1017.28 1017.25 1017.38 1017.59 1017.74 1017.91 1017.97 1018.06 1018.34 1018.55 1018.76 1018.91
1012.50 1013.47 1014.20 1014.51 1014.30 1015.09 1015.77 1015.87 1016.23 1015.91 1016.02 1015.93 1015.79 1015.62 1015.29 1015.09 1015.30 1015.73 1016.03 1016.29 1016.08 1016.48 1016.50 1016.89 1017.01 1017.21 1017.58 1017.72 1017.58 1017.42 1017.24 1017.05 1016.97 1017.08 1017.35 1017.49 1017.62 1017.62 1017.69 1017.90 1018.07 1018.30 1018.49
1012.65 1013.37 1013.90 1014.14 1015.01 1014.87 1014.86 1015.26 1015.58 1015.32 1015.46 1015.63 1015.34 1015.14 1014.88 1014.66 1014.92 1015.38 1015.80 1015.58 1015.92 1016.43 1016.55 1016.61 1016.78 1017.01 1017.15 1017.45 1017.54 1017.21 1017.20 1016.98 1016.88 1016.76 1016.98 1017.14 1017.25 1017.26 1017.37 1017.47 1017.58 1017.87 1017.96
1013.05 1013.95 1014.48 1014.09 1014.23 1014.49 1014.60 1014.57 1014.86 1014.87 1014.86 1015.08 1014.82 1014.81 1014.77 1014.43 1014.90 1015.31 1015.33 1015.36 1015.75 1016.12 1016.35 1016.50 1016.61 1016.75 1016.78 1016.87 1017.00 1017.05 1016.92 1016.68 1016.62 1016.63 1016.65 1016.56 1016.69 1016.73 1016.93 1017.10 1017.27 1017.43 1017.65
1013.42 1013.91 1014.03 1014.54 1014.42 1014.11 1013.93 1014.52 1014.58 1014.47 1014.56 1014.52 1014.66 1014.95 1015.02 1014.70 1014.87 1014.92 1015.00 1015.15 1015.25 1015.72 1015.83 1015.99 1016.19 1016.35 1016.41 1016.58 1016.96 1017.08 1016.79 1016.38 1016.40 1016.18 1016.09 1016.30 1016.27 1016.24 1016.29 1016.59 1016.87 1017.05 1017.21
1013.24 1013.78 1014.52 1014.71 1014.40 1014.35 1014.43 1014.37 1013.74 1013.49 1014.08 1014.54 1014.65 1014.73 1014.86 1014.37 1014.53 1014.66 1014.89 1015.22 1015.45 1015.55 1015.49 1015.58 1015.80 1016.15 1016.12 1016.45 1016.83 1017.18 1017.28 1016.68 1016.03 1015.92 1016.18 1016.18 1016.25 1016.08 1016.06 1016.18 1016.53 1016.76 1016.90
1013.25 1013.78 1014.47 1014.60 1014.35 1014.78 1014.79 1014.65 1014.10 1013.84 1013.89 1014.80 1014.96 1014.90 1014.51 1014.32 1014.57 1014.82 1014.80 1014.91 1015.15 1015.19 1015.19 1015.20 1015.22 1015.58 1015.86 1016.17 1016.04 1016.62 1017.17 1017.12 1016.50 1015.81 1015.93 1015.77 1016.05 1016.23 1015.98 1015.95 1016.23 1016.51 1016.74
1013.14 1013.63 1014.30 1014.56 1014.59 1014.88 1015.10 1014.74 1014.99 1015.41 1015.71 1015.57 1015.39 1014.98 1014.86 1014.71 1014.90 1014.82 1014.79 1014.68 1014.88 1014.70 1014.66 1014.77 1014.85 1015.03 1015.33 1015.71 1016.05 1015.93 1016.04 1016.14 1016.43 1016.47 1016.05 1015.89 1016.06 1016.04 1015.83 1015.92 1016.04 1016.51 1016.91
1013.15 1013.70 1014.43 1014.77 1015.15 1015.35 1015.30 1015.37 1015.77 1016.08 1016.01 1015.80 1015.56 1015.47 1015.32 1015.41 1015.03 1014.96 1014.96 1014.81 1014.66 1014.35 1014.35 1014.31 1014.36 1014.68 1014.87 1015.15 1015.25 1015.67 1016.04 1016.29 1016.49 1016.82 1016.84 1016.44 1016.15 1015.83 1015.76 1016.06 1016.17 1016.68 1017.25
1013.17 1013.90 1014.60 1014.93 1015.26 1015.57 1015.80 1015.86 1016.02 1016.17 1016.07 1015.95 1015.92 1016.08 1015.91 1015.59 1015.41 1015.05 1014.90 1014.68 1014.15 1014.10 1013.96 1013.87 1013.90 1014.17 1014.37 1014.54 1014.88 1015.19 1015.37 1015.83 1016.20 1016.59 1016.99 1016.89 1016.83 1016.61 1016.39 1016.28 1016.26 1016.74 1017.28
Wind_Speed
7 6 11 12 15 16 16 16 16 16 16 15 14 15 15 15 15 14 14 14 13 13 11 12 9 11 12 12 14 14 14 15 18 18 18 17 16 15 16 16 16 11 15
11 8 12 14 16 16 15 15 15 15 15 15 14 13 13 13 14 14 13 12 11 10 10 10 10 10 11 12 13 14 13 14 17 18 18 15 14 13 16 15 15 12 15
13 11 12 15 16 16 15 14 15 15 15 14 14 13 12 12 12 12 12 12 10 9 8 8 10 10 9 12 11 13 13 12 15 15 16 5 7 13 15 14 15 14 14
13 9 10 15 15 16 15 14 14 15 14 14 14 13 13 12 11 10 10 10 9 8 8 9 11 11 9 11 12 12 12 13 13 16 6 5 11 16 14 15 14 14 14
11 10 12 16 15 16 15 14 14 14 14 14 13 13 13 13 11 9 9 9 8 7 7 9 10 11 11 12 12 13 12 12 13 10 5 5 5 13 15 14 14 13 14
11 11 14 16 16 16 15 14 14 14 13 12 12 12 12 11 11 9 8 7 7 6 6 8 9 9 10 12 12 11 11 13 13 5 5 8 6 15 15 15 14 14 13
12 10 11 15 15 15 15 14 14 14 13 13 11 10 10 10 9 8 7 7 5 6 7 7 7 7 7 9 9 10 9 11 5 5 5 8 7 16 17 15 16 14 13
16 11 11 15 15 16 15 15 15 14 13 12 11 10 9 8 9 9 7 7 6 7 6 6 6 7 6 7 7 7 7 8 4 2 6 7 12 15 17 16 15 14 14
10 10 9 9 13 16 15 14 13 13 13 12 10 10 8 7 6 7 8 7 7 7 7 5 6 7 8 9 8 6 5 5 3 2 5 4 12 16 17 17 16 14 13
8 6 6 6 6 6 7 14 13 12 13 13 12 10 11 9 8 7 6 6 7 7 7 7 7 8 9 9 7 7 6 4 0 3 4 5 14 16 16 16 16 15 13
7 6 5 5 7 6 5 7 10 13 12 11 10 10 8 3 4 7 7 8 8 8 8 8 9 8 9 10 11 9 7 2 1 1 3 11 15 16 16 16 15 15 14
9 9 10 9 9 7 6 5 5 3 2 3 4 4 3 4 4 5 7 11 10 9 9 9 8 8 7 2 3 8 2 3 3 3 2 13 14 15 16 15 16 16 16
14 10 11 9 9 10 7 5 3 3 3 3 5 5 5 3 4 3 3 3 3 9 3 5 4 3 4 4 4 4 4 3 2 3 3 13 15 15 16 16 16 17 16
14 13 11 8 7 6 4 5 5 4 4 3 5 6 4 3 3 3 3 4 4 3 5 4 3 4 5 5 5 5 5 3 3 3 4 11 12 15 16 16 17 16 16
14 12 11 7 7 5 5 3 3 4 4 5 4 5 4 4 4 3 3 3 4 3 4 4 4 4 5 6 5 6 5 5 6 3 3 14 14 14 17 18 18 18 17
12 11 10 6 7 6 5 4 2 2 4 4 4 6 6 4 5 4 4 4 4 4 4 4 6 5 4 4 5 5 6 5 5 5 3 5 14 14 15 17 18 19 18
10 8 11 11 10 11 5 5 4 3 4 3 4 7 7 6 6 5 4 4 4 3 5 4 4 3 2 2 5 5 5 7 6 5 5 4 5 15 15 17 18 18 19
7 12 13 9 12 10 7 4 1 2 3 4 3 5 7 9 6 5 4 5 4 4 4 3 3 3 4 4 4 6 6 5 7 6 4 4 5 5 11 18 18 18 18
14 16 12 9 7 7 9 5 3 3 2 2 3 5 7 6 7 4 4 5 4 3 4 4 4 3 3 4 5 4 5 4 5 4 6 5 6 6 5 11 18 19 20
14 13 8 6 5 2 3 5 2 1 0 3 3 4 6 3 3 3 3 4 2 3 5 3 4 4 3 4 2 2 3 3 3 4 6 6 6 7 6 8 6 9 18
14 10 9 9 5 3 1 3 2 2 3 1 2 5 6 3 2 2 1 3 2 4 5 8 5 7 4 2 2 3 3 4 5 5 5 5 5 5 6 6 5 4 5
14 10 8 8 7 4 2 3 4 4 3 1 3 7 6 2 2 2 1 3 4 3 4 4 5 3 3 5 4 3 3 5 2 5 4 4 6 4 5 6 6 6 6
12 11 12 11 7 5 3 3 4 5 5 4 4 4 3 2 4 3 2 2 4 3 4 4 3 5 4 3 5 5 3 4 2 1 4 4 5 4 5 5 5 5 5
11 10 11 9 8 4 5 5 3 2 2 2 3 2 5 6 6 5 5 5 5 3 4 4 4 4 4 4 1 4 0 3 3 3 2 2 4 5 6 3 4 2 2
12 11 10 9 4 2 3 4 4 2 3 4 2 4 6 5 6 5 5 5 5 3 4 5 3 4 4 4 3 2 1 2 1 2 2 3 2 3 3 2 4 5 4
12 11 10 10 6 4 3 2 4 5 3 3 4 4 3 3 3 4 5 5 5 4 4 4 3 5 5 4 4 4 4 4 3 3 1 2 2 3 3 3 4 5 3
Wind_Direction
165 154 141 135 138 141 135 126 121 118 116 113 110 109 112 113 114 117 119 122 122 125 130 127 122 120 118 119 118 120 122 127 122 121 118 114 114 121 113 113 113 112 112
129 134 134 137 144 144 136 130 128 123 120 115 112 109 110 117 122 125 124 122 123 127 134 135 130 130 126 125 126 127 125 123 122 127 116 115 121 125 115 116 113 113 109
132 141 139 136 138 139 134 130 126 125 124 124 120 117 118 122 123 124 126 127 131 132 143 147 139 139 140 133 134 126 122 119 123 118 113 102 103 123 124 123 122 122 121
133 130 135 133 133 134 136 132 134 133 133 131 128 127 124 129 130 127 130 129 126 125 135 144 152 149 152 146 141 130 133 134 130 124 122 133 119 123 126 127 128 119 124
125 125 135 135 137 137 137 137 138 138 140 140 136 134 133 134 136 136 131 130 124 130 133 148 155 156 162 158 152 148 150 146 147 148 136 128 125 133 132 133 134 128 127
127 127 129 134 139 141 142 143 144 144 144 145 144 144 139 142 147 148 140 136 137 139 145 157 158 160 173 163 160 159 152 134 141 151 155 157 141 143 143 143 144 134 131
130 129 129 135 139 143 145 149 150 148 150 153 152 144 146 157 160 153 152 154 163 163 162 174 165 171 184 168 168 162 162 168 172 197 173 150 160 153 150 152 147 146 144
137 138 141 141 143 145 150 153 151 151 153 154 153 155 158 163 150 158 162 165 174 172 159 168 171 171 179 168 180 171 176 177 149 99 141 153 171 157 152 153 152 153 152
132 139 143 146 152 151 152 152 151 157 157 159 168 163 165 167 167 171 175 174 176 176 171 177 168 172 175 180 177 175 181 186 109 118 151 147 168 155 158 158 159 159 160
129 129 131 146 136 138 154 157 159 165 167 169 176 177 175 182 184 195 188 189 196 196 193 185 185 178 176 168 169 187 184 180 130 199 163 167 177 165 166 167 167 164 174
135 139 150 160 143 144 148 164 166 173 173 176 181 183 184 185 214 203 198 211 206 208 203 209 202 186 180 182 191 190 185 139 237 152 166 181 179 175 175 175 172 170 174
161 174 179 174 164 156 161 160 156 185 163 179 196 217 200 209 210 215 221 220 219 216 213 210 215 198 183 195 208 199 199 170 171 181 214 187 182 185 184 182 178 181 183
182 182 189 182 173 164 166 165 163 167 194 200 210 215 215 217 232 249 227 243 215 229 219 210 208 188 173 195 214 199 203 209 214 173 205 189 183 191 190 193 189 189 189
184 190 184 183 165 177 152 168 173 175 191 209 209 213 208 213 227 236 184 212 212 214 210 217 213 192 191 215 212 217 217 192 214 190 208 202 201 201 195 201 200 198 198
181 186 186 169 161 169 160 169 185 192 195 209 221 220 202 203 223 183 194 188 213 224 207 212 215 207 199 213 227 209 215 208 218 195 196 209 211 206 203 204 209 207 207
176 174 171 118 64 63 27 358 321 297 250 214 222 231 219 211 210 177 175 194 186 191 206 197 197 199 197 187 220 233 231 229 221 206 217 212 217 214 213 210 212 213 212
188 153 88 94 103 74 36 45 16 12 3 328 273 209 214 221 215 195 175 201 212 207 198 197 215 170 175 231 223 239 229 227 215 215 205 200 219 227 222 217 215 216 217
126 105 120 124 125 141 172 128 23 322 6 316 316 268 242 221 205 203 199 209 203 193 194 207 207 213 189 203 231 236 232 217 226 212 207 206 224 215 224 219 219 216 218
126 134 135 122 117 175 168 139 128 332 327 291 310 278 225 206 206 202 222 233 189 209 219 203 218 205 199 221 220 238 251 234 222 205 227 217 211 214 214 232 226 222 219
121 112 117 140 161 183 74 139 155 226 218 273 344 334 273 213 222 218 237 259 201 194 203 223 222 214 213 218 237 223 248 245 228 227 224 227 217 204 203 215 229 229 230
124 127 139 141 165 157 245 68 127 178 240 95 17 354 292 182 141 235 242 266 229 197 214 196 208 212 226 176 90 325 295 247 229 226 217 222 238 219 204 211 214 211 227
145 132 140 145 185 190 183 216 177 190 110 91 344 321 278 203 159 229 289 281 270 253 235 222 195 185 203 174 159 98 321 320 273 212 210 200 235 238 225 208 207 209 218
142 145 153 174 201 152 150 80 5 6 20 12 330 279 269 27 56 50 7 314 282 233 235 234 222 191 187 185 216 148 155 233 307 56 223 210 222 224 237 219 210 210 211
144 151 146 173 193 173 164 115 84 126 174 275 268 353 2 43 57 44 14 349 306 280 260 238 199 204 165 171 188 243 299 158 160 336 324 257 206 235 231 211 227 215 102
135 144 150 162 207 154 159 125 145 233 246 278 339 51 72 49 36 18 349 313 301 288 256 244 238 206 201 155 170 130 170 213 177 115 296 335 308 242 259 240 118 106 94
135 143 150 164 189 198 216 186 199 233 222 133 60 71 47 33 351 351 336 316 304 302 269 263 242 219 209 194 180 175 167 161 169 144 64 323 274 350 4 37 89 102 142